Location: Newark
(42.8481°N, 0.4872°E)
Time: 14:31:17
(UTC+00:00)

Tiros 1 despin weight - All Passes

Search period start: 31 October 2020 00:00
Search period end: 10 November 2020 00:00
Orbit: 594 x 641 km, 48.2° (Epoch: 31 October)

Date Brightness Start Highest point End Pass type
(mag) Time Alt. Az. Time Alt. Az. Time Alt. Az.
31 Oct - 00:58:10 10° W 01:02:32 49° NNW 01:06:52 10° ENE night (unlit)
31 Oct - 02:40:22 10° WNW 02:44:38 43° N 02:48:52 10° E visible
31 Oct - 04:22:01 10° WNW 04:26:28 86° SSW 04:30:53 10° ESE visible
31 Oct - 06:04:20 10° W 06:07:32 20° SW 06:10:44 10° S visible
31 Oct - 21:52:21 10° SSW 21:56:04 25° SE 21:59:44 10° E night (unlit)
31 Oct - 23:32:45 10° WSW 23:37:17 83° NNW 23:41:46 10° ENE night (unlit)
01 Nov - 01:14:55 10° WNW 01:19:11 42° N 01:23:25 10° ENE night (unlit)
01 Nov - 02:56:54 10° WNW 03:01:15 53° NNE 03:05:36 10° E visible
01 Nov - 04:38:32 10° WNW 04:42:50 51° SSW 04:47:06 10° SE visible
01 Nov - 22:07:57 10° SW 22:12:17 45° SE 22:16:34 10° ENE night (unlit)
01 Nov - 23:49:21 10° W 23:53:49 57° NNW 23:58:12 10° ENE night (unlit)
02 Nov - 01:31:36 10° WNW 01:35:51 41° N 01:40:05 10° ENE night (unlit)
02 Nov - 03:13:21 10° WNW 03:17:50 75° NNE 03:22:13 10° ESE visible
02 Nov - 04:55:17 10° W 04:59:04 28° SW 05:02:50 10° SSE visible
02 Nov - 20:44:34 10° S 20:47:36 18° SE 20:50:37 10° E night (unlit)
02 Nov - 22:24:05 10° WSW 22:28:38 77° SSE 22:33:08 10° ENE night (unlit)
03 Nov - 00:06:04 10° W 00:10:25 45° N 00:14:43 10° ENE night (unlit)
03 Nov - 01:48:12 10° WNW 01:52:31 46° N 01:56:48 10° E night (unlit)
03 Nov - 03:29:50 10° WNW 03:34:16 70° SSW 03:38:38 10° SE visible
03 Nov - 05:12:39 10° W 05:15:11 15° SW 05:17:43 10° S visible
03 Nov - 20:59:41 10° SSW 21:03:45 32° SE 21:07:47 10° ENE night (unlit)
03 Nov - 22:40:33 10° WSW 22:45:06 70° NNW 22:49:35 10° ENE night (unlit)
04 Nov - 00:22:48 10° WNW 00:27:05 41° N 00:31:19 10° ENE night (unlit)
04 Nov - 02:04:41 10° WNW 02:09:08 60° NNE 02:13:30 10° E night (unlit)
04 Nov - 03:46:25 10° WNW 03:50:34 40° SW 03:54:42 10° SSE visible
04 Nov - 19:37:27 10° SSE 19:39:10 12° SE 19:40:53 10° ESE night (unlit)
04 Nov - 21:15:32 10° SW 21:20:01 57° SSE 21:24:27 10° ENE night (unlit)
04 Nov - 22:57:13 10° W 23:01:40 51° NNW 23:06:03 10° ENE night (unlit)
05 Nov - 00:39:27 10° WNW 00:43:45 43° N 00:48:01 10° ENE night (unlit)
05 Nov - 02:21:09 10° WNW 02:25:37 88° NNE 02:30:03 10° ESE night (unlit)
05 Nov - 04:03:20 10° W 04:06:46 22° SW 04:10:09 10° S visible
05 Nov - 19:51:38 10° S 19:55:15 23° SE 19:58:50 10° E night (unlit)
05 Nov - 21:31:50 10° WSW 21:36:25 88° NNW 21:40:56 10° ENE night (unlit)
05 Nov - 23:13:58 10° W 23:18:18 43° N 23:22:35 10° ENE night (unlit)
06 Nov - 00:56:00 10° WNW 01:00:24 51° NNE 01:04:44 10° E night (unlit)
06 Nov - 02:37:39 10° WNW 02:42:01 56° SSW 02:46:20 10° SE night (unlit)
06 Nov - 04:21:27 10° WSW 04:22:49 11° SW 04:24:10 10° SSW visible
06 Nov - 20:07:07 10° SSW 20:11:26 41° SE 20:15:43 10° ENE visible
06 Nov - 21:48:23 10° W 21:52:55 61° NNW 21:57:24 10° ENE night (unlit)
06 Nov - 23:30:40 10° WNW 23:34:58 41° N 23:39:13 10° ENE night (unlit)
07 Nov - 01:12:28 10° WNW 01:16:58 70° NNE 01:21:23 10° ESE night (unlit)
07 Nov - 02:54:20 10° WNW 02:58:17 31° SW 03:02:11 10° SSE night (unlit)
07 Nov - 18:43:58 10° S 18:46:47 16° SE 18:49:35 10° E visible
07 Nov - 20:23:11 10° SW 20:27:46 71° SSE 20:32:18 10° ENE visible
07 Nov - 22:05:06 10° W 22:09:31 47° N 22:13:53 10° ENE night (unlit)
07 Nov - 23:47:16 10° WNW 23:51:38 45° N 23:55:56 10° E night (unlit)
08 Nov - 01:28:56 10° WNW 01:33:26 77° SSW 01:37:50 10° ESE night (unlit)
08 Nov - 03:11:31 10° W 03:14:24 17° SW 03:17:16 10° S night (unlit)
08 Nov - 18:58:54 10° SSW 19:02:54 29° SE 19:06:52 10° E visible
08 Nov - 20:39:36 10° WSW 20:44:13 75° NNW 20:48:45 10° ENE visible
08 Nov - 22:21:50 10° WNW 22:26:10 42° N 22:30:28 10° ENE night (unlit)
09 Nov - 00:03:47 10° WNW 00:08:15 57° NNE 00:12:38 10° E night (unlit)
09 Nov - 01:45:29 10° WNW 01:49:45 44° SW 01:53:58 10° SE night (unlit)
09 Nov - 17:37:20 10° SE 17:38:21 11° SE 17:39:22 10° ESE visible
09 Nov - 19:14:39 10° SW 19:19:09 52° SE 19:23:36 10° ENE visible
09 Nov - 20:56:14 10° W 21:00:45 54° NNW 21:05:13 10° ENE visible
09 Nov - 22:38:30 10° WNW 22:42:51 42° N 22:47:08 10° ENE night (unlit)
